Waarnemingen

Advertentie
Mijn weer
Albacete/Los Llanos, Spanje (8280): temperatuur & dauwpunt: 15.01.2021 22:00:00 - 21.01.2021 22:00:00 (CET)Albacete/Los Llanos, Spanje (8280): windsnelheid: 15.01.2021 22:00:00 - 21.01.2021 22:00:00 (CET)Albacete/Los Llanos, Spanje (8280): windrichting: 15.01.2021 22:00:00 - 21.01.2021 22:00:00 (CET)Albacete/Los Llanos, Spanje (8280): luchtdruk: 15.01.2021 22:00:00 - 21.01.2021 22:00:00 (CET)Albacete/Los Llanos, Spanje (8280): zicht: 15.01.2021 22:00:00 - 21.01.2021 22:00:00 (CET)Albacete/Los Llanos, Spanje (8280): neerslag: 15.01.2021 22:00:00 - 21.01.2021 22:00:00 (CET)
Datum & Tijd tt [°C] td [°C] ff [km/u] ff [kn] dd ppp [hPa] vv [km] rr [mm]
21.01.2021 22:00:00 9,5 7,1 15 8 WZW 1016,2 - -
21.01.2021 21:00:00 9,7 7,1 26 14 WZW 1016,8 - 0,0
21.01.2021 20:00:00 9,5 6,8 22 12 WZW 1016,5 - 0,0
21.01.2021 19:00:00 9,3 6,6 16 9 WZW 1016,6 30 -
21.01.2021 18:00:00 9,9 6,2 21 11 W 1016,3 - 0,0
21.01.2021 17:00:00 10,7 6,1 22 12 WZW 1015,9 - 0,0
21.01.2021 16:00:00 10,3 6,1 24 13 W 1016,5 30 -
21.01.2021 15:00:00 11,1 5,6 24 13 WZW 1016,5 - 0,0
21.01.2021 14:00:00 10,9 6,4 26 14 W 1016,9 - 0,0
21.01.2021 13:00:00 10,1 6,1 22 12 W 1017,6 30 -
21.01.2021 12:00:00 9,7 6,0 16 9 W 1018,2 - 0,0
21.01.2021 11:00:00 8,6 6,0 16 9 W 1018,6 - 0,0
21.01.2021 10:00:00 7,6 5,2 15 8 W 1018,2 30 -
21.01.2021 09:00:00 5,4 4,4 11 6 W 1018,2 - 0,0
21.01.2021 08:00:00 4,2 3,6 8 4 ZW 1018,2 - 0,0
21.01.2021 07:00:00 5,0 3,7 11 6 WZW 1017,4 30 -
21.01.2021 06:00:00 5,7 4,5 18 10 W 1016,4 - 0,0
21.01.2021 05:00:00 5,1 3,9 18 10 W 1016,4 - 0,0
21.01.2021 04:00:00 5,6 4,4 16 9 W 1015,9 30 -
21.01.2021 03:00:00 5,2 4,5 15 8 W 1015,5 - 0,0
21.01.2021 02:00:00 4,4 3,8 9 5 WZW 1015,8 - 0,0
21.01.2021 01:00:00 5,6 4,4 11 6 W 1015,3 30 -
21.01.2021 00:00:00 5,4 4,7 11 6 ZW 1014,9 - 0,0
20.01.2021 23:00:00 6,7 5,2 15 8 WZW 1013,9 - 0,0
20.01.2021 22:00:00 6,7 5,0 15 8 WZW 1013,4 30 -
20.01.2021 21:00:00 6,6 4,8 9 5 ZZW 1013,8 - 0,0
20.01.2021 20:00:00 8,0 5,8 21 11 W 1012,9 - 0,0
20.01.2021 19:00:00 4,6 3,4 13 7 ZZW 1013,8 20 -
20.01.2021 18:00:00 5,6 3,3 5 3 ZO 1013,3 - 0,0
20.01.2021 17:00:00 5,8 3,3 8 4 Z 1013,3 - 0,0
20.01.2021 16:00:00 5,4 2,7 11 6 Z 1013,7 20 -
20.01.2021 15:00:00 6,0 3,5 15 8 Z 1013,7 - 0,0
20.01.2021 14:00:00 3,7 3,4 5 3 OZO 1015,3 - 0,2
20.01.2021 13:00:00 2,4 2,0 11 6 NO 1017,2 8 -
20.01.2021 12:00:00 2,7 0,8 4 2 ZO 1018,2 - 0,0
20.01.2021 11:00:00 1,3 0,3 11 6 ZZO 1018,6 - 0,0
20.01.2021 10:00:00 -1,0 -1,3 8 4 ZZO 1019,4 6 -
20.01.2021 09:00:00 -2,4 -2,7 4 2 WZW 1020,3 - 0,0
20.01.2021 08:00:00 -3,3 -3,4 4 2 ZO 1020,5 - 0,0
20.01.2021 07:00:00 -3,6 -3,9 4 2 O 1021,5 0,4 -
20.01.2021 06:00:00 -3,8 -4,1 2 1 O 1021,4 - 0,0
20.01.2021 05:00:00 -3,5 -3,8 8 4 O 1021,8 - 0,0
20.01.2021 04:00:00 -2,8 -3,2 4 2 WNW 1022,6 15 -
20.01.2021 03:00:00 -1,2 -1,2 11 6 ZO 1022,4 - 0,0
20.01.2021 02:00:00 -1,9 -2,0 5 3 Z 1023,0 - 0,0
20.01.2021 01:00:00 -1,8 -2,4 4 2 ZW 1023,8 15 -
20.01.2021 00:00:00 -1,6 -2,4 4 2 ZZO 1024,4 - 0,0
19.01.2021 23:00:00 -0,9 -1,9 8 4 ZZO 1024,6 - 0,0
19.01.2021 22:00:00 -1,5 -2,2 11 6 ZZO 1025,3 10 -
19.01.2021 21:00:00 -1,3 -2,7 8 4 ZZO 1025,9 - 0,0
19.01.2021 20:00:00 -1,2 -2,5 8 4 Z 1026,2 - 0,0
19.01.2021 19:00:00 0,2 -2,2 9 5 ZW 1026,2 30 -
19.01.2021 18:00:00 2,6 -1,0 5 3 WZW 1024,8 - 0,0
19.01.2021 17:00:00 7,0 0,6 4 2 NNO 1023,6 - 0,0
19.01.2021 16:00:00 7,6 1,4 5 3 NO 1023,8 25 -
19.01.2021 15:00:00 6,6 0,5 8 4 ONO 1024,6 - 0,0
19.01.2021 14:00:00 7,3 0,5 5 3 NO 1025,1 - 0,0
19.01.2021 13:00:00 5,9 -0,6 5 3 NO 1026,6 25 -
19.01.2021 12:00:00 3,6 -2,2 9 5 ONO 1028,5 - 0,0
19.01.2021 11:00:00 2,4 -2,3 4 2 ONO 1029,0 - 0,0
19.01.2021 10:00:00 -0,4 -3,3 2 1 O 1029,8 20 -
19.01.2021 09:00:00 -7,0 -7,7 2 1 WNW 1032,2 - 0,0
19.01.2021 08:00:00 -6,8 -7,6 4 2 W 1032,0 - 0,0
19.01.2021 07:00:00 -6,7 -7,5 4 2 WZW 1032,1 15 -
19.01.2021 06:00:00 -6,1 -6,6 2 1 NW 1031,6 - 0,0
19.01.2021 05:00:00 -5,2 -5,6 8 4 Z 1031,5 - 0,0
19.01.2021 04:00:00 -5,0 -5,4 2 1 O 1032,0 30 -
19.01.2021 03:00:00 -4,6 -5,0 2 1 ZO 1032,2 - 0,0
19.01.2021 02:00:00 -3,7 -4,0 4 2 OZO 1032,0 - 0,0
19.01.2021 01:00:00 -2,9 -3,2 5 3 ZW 1032,0 30 -
19.01.2021 00:00:00 -3,1 -3,5 4 2 ZW 1032,2 - 0,0
18.01.2021 23:00:00 -2,3 -2,7 5 3 ZZO 1032,0 - 0,0
18.01.2021 22:00:00 -2,4 -2,7 8 4 ZZO 1032,1 30 -
18.01.2021 21:00:00 -2,3 -3,0 8 4 Z 1032,0 - 0,0
18.01.2021 20:00:00 -1,0 -2,0 4 2 ZZO 1031,4 - 0,0
18.01.2021 19:00:00 0,7 -1,5 2 1 W 1030,3 30 -
18.01.2021 18:00:00 5,5 0,3 5 3 W 1028,3 - 0,0
18.01.2021 17:00:00 6,7 -0,5 5 3 W 1027,8 - 0,0
18.01.2021 16:00:00 8,4 0,6 5 3 W 1027,3 30 -
18.01.2021 15:00:00 7,6 -0,1 5 3 W 1027,7 - 0,0
18.01.2021 14:00:00 6,8 -1,1 8 4 WNW 1028,8 - 0,0
18.01.2021 13:00:00 6,1 -1,8 8 4 W 1029,7 30 -
18.01.2021 12:00:00 4,3 -3,0 5 3 ONO 1031,1 - 0,0
18.01.2021 11:00:00 3,5 -4,0 5 3 NO 1031,2 - 0,0
18.01.2021 10:00:00 0,0 -4,1 4 2 ZW 1032,0 - -
18.01.2021 09:00:00 -4,8 -6,5 4 2 WZW 1033,1 - 0,0
18.01.2021 08:00:00 -5,8 -7,0 8 4 ZZO 1033,3 - 0,0
18.01.2021 07:00:00 -5,0 -6,2 5 3 WNW 1032,9 30 -
18.01.2021 06:00:00 -5,3 -6,8 2 1 WZW 1032,5 - 0,0
18.01.2021 05:00:00 -4,9 -6,6 2 1 ZZW 1032,2 - 0,0
18.01.2021 04:00:00 -4,3 -6,4 8 4 ZZO 1032,6 30 -
18.01.2021 03:00:00 -4,3 -6,1 8 4 ZO 1032,3 - 0,0
18.01.2021 02:00:00 -3,7 -6,0 8 4 Z 1032,2 - 0,0
18.01.2021 01:00:00 -3,5 -5,7 8 4 ZZO 1032,5 30 -
18.01.2021 00:00:00 -3,2 -5,5 11 6 ZZO 1032,8 - 0,0
17.01.2021 23:00:00 -2,7 -4,4 8 4 O 1032,5 - 0,0
17.01.2021 22:00:00 -3,0 -4,6 5 3 OZO 1032,4 30 -
17.01.2021 21:00:00 -2,2 -4,4 8 4 ONO 1032,0 - 0,0
17.01.2021 20:00:00 -1,2 -4,0 5 3 O 1031,6 - 0,0
17.01.2021 19:00:00 0,4 -3,9 2 1 NNW 1030,9 30 -
17.01.2021 18:00:00 5,5 -3,3 5 3 WNW 1029,0 - 0,0
17.01.2021 17:00:00 7,0 -2,7 5 3 WNW 1028,4 - 0,0
17.01.2021 16:00:00 7,4 -3,5 5 3 W 1028,2 30 -
17.01.2021 15:00:00 8,1 -4,4 8 4 WNW 1028,3 - 0,0
17.01.2021 14:00:00 8,7 -4,5 4 2 WNW 1029,1 - 0,0
17.01.2021 13:00:00 8,6 -4,9 2 1 ONO 1029,9 30 -
17.01.2021 12:00:00 6,0 -5,4 2 1 NNO 1031,7 - 0,0
17.01.2021 11:00:00 3,4 -5,5 5 3 Z 1032,7 - 0,0
17.01.2021 10:00:00 -1,0 -5,6 4 2 WZW 1033,7 30 -
17.01.2021 09:00:00 -6,0 -7,8 4 2 ZZO 1034,8 - 0,0
17.01.2021 08:00:00 -6,6 -8,0 8 4 ZZO 1034,6 - 0,0
17.01.2021 07:00:00 -6,4 -7,9 4 2 ZO 1034,4 30 -
17.01.2021 06:00:00 -5,6 -7,4 5 3 Z 1034,0 - 0,0
17.01.2021 05:00:00 -5,5 -7,0 4 2 OZO 1034,1 - 0,0
17.01.2021 04:00:00 -5,2 -7,0 8 4 ZZO 1034,2 30 -
17.01.2021 03:00:00 -4,8 -6,2 4 2 O 1033,9 - 0,0
17.01.2021 02:00:00 -4,5 -5,6 4 2 ZO 1034,5 - 0,0
17.01.2021 01:00:00 -4,3 -5,4 2 1 Z 1034,7 30 -
17.01.2021 00:00:00 -3,6 -5,0 4 2 OZO 1034,6 - 0,0
16.01.2021 23:00:00 -3,7 -5,4 11 6 Z 1034,2 - 0,0
16.01.2021 22:00:00 -3,5 -5,1 5 3 ZZW 1034,0 30 -
16.01.2021 21:00:00 -3,2 -4,8 8 4 ZZO 1033,7 - 0,0
16.01.2021 20:00:00 -2,0 -3,9 9 5 ZZO 1033,1 - 0,0
16.01.2021 19:00:00 -0,5 -3,5 4 2 OZO 1032,1 30 -
16.01.2021 18:00:00 3,4 -2,4 4 2 N 1030,6 - 0,0
16.01.2021 17:00:00 5,8 -2,3 5 3 NW 1029,4 - 0,0
16.01.2021 16:00:00 6,3 -2,3 13 7 WNW 1029,3 30 -
16.01.2021 15:00:00 6,3 -2,8 11 6 NW 1029,1 - 0,0
16.01.2021 14:00:00 6,6 -3,9 8 4 WNW 1029,0 - 0,0
16.01.2021 13:00:00 5,9 -3,7 9 5 WNW 1029,7 30 -
16.01.2021 12:00:00 4,8 -3,7 15 8 WNW 1030,3 - 0,0
16.01.2021 11:00:00 3,4 -4,3 8 4 W 1030,7 - 0,0
16.01.2021 10:00:00 0,5 -4,5 8 4 ZW 1030,8 30 -
16.01.2021 09:00:00 -1,6 -4,6 5 3 WNW 1030,3 - 0,0
16.01.2021 08:00:00 -2,9 -5,1 8 4 WZW 1030,2 - 0,0
16.01.2021 07:00:00 -2,6 -4,6 11 6 WNW 1029,7 10 -
16.01.2021 06:00:00 -1,5 -4,2 18 10 WNW 1029,1 - 0,0
16.01.2021 05:00:00 -0,1 -3,1 9 5 WNW 1028,1 - 0,0
16.01.2021 04:00:00 1,0 -2,6 26 14 WNW 1026,9 30 -
16.01.2021 03:00:00 1,2 -2,2 18 10 W 1027,2 - 0,0
16.01.2021 02:00:00 1,9 -1,9 28 15 WNW 1027,0 - 0,0
16.01.2021 01:00:00 1,0 -2,2 16 9 W 1027,9 30 -
16.01.2021 00:00:00 0,8 -2,6 9 5 WZW 1028,3 - 0,0
15.01.2021 23:00:00 1,1 -2,0 13 7 W 1028,0 - 0,0
15.01.2021 22:00:00 0,9 -1,8 11 6 W 1028,4 30 -

tt = temperatuur
td = dauwpunt
ff = windsnelheid
dd = windrichting
ppp = luchtdruk
vv = zicht
rr = neerslag

Weerstations in de omgeving